Location: Newark
(45.4422°N, 16.2769°E)
Time: 14:29:13
(UTC+00:00)

Vanguard 2 - Pass Details

Date: 16 December 2019
Orbit: 553 x 2938 km, 32.9° (Epoch: 23 January)

Event Time Altitude Azimuth Distance (km) Brightness Sun altitude
Rises 05:31:01 0° 276° (W) 6,720 - -9.7°
Exits shadow 05:33:46 - 271° (W) 6,274 11.6 -9.2°
Reaches altitude 10° 05:37:06 10° 263° (W) 5,770 11.5 -8.7°
Maximum altitude 05:48:27 21° 223° (SW) 4,681 11.4 -6.9°
Drops below altitude 10° 05:58:36 10° 181° (S) 5,060 12.1 -5.3°
Sets 06:03:29 0° 167° (SSE) 5,704 12.7 -4.6°
